Fairweather Grounds 92NM Southeast of Yakutat, AK (46083)

Conditions for Saturday

Daily
Weekly
Monthly
Marine Data Graph

Marine & Boating Location Search

Enter a coastal zip code for marine weather.

General Information

Location: 58.237 North -137.986 West
Buoy Type: 6-meter NOMAD buoy
Buoy Hull: 6N31
Payload: ARES 4.4 payload
Owned by: NDBC
Windspeed: Measured by obtained from anemometer
Sea Surface: Measured by Intake
Note:

Weather and Wave Data

Time Temp Humidity Wind Dominant Wave Wind Wave Wave Swell Pressure
  Air
(°F)
Water
(°F)
  Dir Speed
(kts)
Speed
(mph)
Period
(sec)
Height
(ft)
Range
(ft)
Period
(sec)
Height
(ft)
Range
(ft)
Period
(sec)
Height
(ft)
Range
(ft)
Atmo.
(in)
Tend.
(in)
20:50 38 46 76 SE 21.4 24.6 5 5.25 exactly 5.2 5 4.92 4.10 - 5.74 11 1.64 0.82 - 2.46 30.01 -0.06
21:50 36 47 86 SE 23.3 26.8 12 5.91 exactly 5.9 5 4.92 4.10 - 5.74 12 3.28 2.46 - 4.10 29.99 -0.05
22:50 35 47 93 ESE 23.3 26.8 5 6.23 exactly 6.2 5 4.92 4.10 - 5.74 11 3.28 2.46 - 4.10 29.97 -0.05
23:50 36 47 91 ESE 25.3 29.1 5 5.91 exactly 5.9 5 4.92 4.10 - 5.74 11 3.28 2.46 - 4.10 29.96 -0.05
00:50 37 47 89 ESE 25.3 29.1 11 7.55 exactly 7.5 5 6.56 5.74 - 7.38 11 3.28 2.46 - 4.10 29.94 -0.06
01:50 37 47 92 ESE 25.3 29.1 6 7.22 exactly 7.2 6 6.56 5.74 - 7.38 12 3.28 2.46 - 4.10 29.92 -0.05
02:50 37 47 92 SE 27.2 31.3 6 7.55 exactly 7.5 6 6.56 5.74 - 7.38 11 3.28 2.46 - 4.10 29.90 -0.06
03:50 38 47 91 SE 27.2 31.3 6 8.53 exactly 8.5 6 8.20 7.38 - 9.02 12 3.28 2.46 - 4.10 29.87 -0.07
04:50 37 46 92 SE 27.2 31.3 6 9.19 exactly 9.2 6 8.20 7.38 - 9.02 11 3.28 2.46 - 4.10 29.85 -0.07
05:50 37 46 87 SE 27.2 31.3 6 9.51 exactly 9.5 6 9.84 9.02 - 10.66 11 3.28 2.46 - 4.10 29.83 -0.08
06:50 37 47 88 SE 29.2 33.6 6 10.50 exactly 10.5 6 9.84 9.02 - 10.66 10 1.64 0.82 - 2.46 29.80 -0.07
07:50 37 47 84 SE 29.2 33.6 6 10.83 exactly 10.8 6 9.84 9.02 - 10.66 11 1.64 0.82 - 2.46 29.78 -0.07
08:50 37 47 87 ESE 31.1 35.8 8 10.83 exactly 10.8 8 11.48 10.66 - 12.30 - - - 29.77 -0.06
09:50 37 47 89 ESE 31.1 35.8 8 10.17 exactly 10.2 8 9.84 9.02 - 10.66 13 3.28 2.46 - 4.10 29.75 -0.04
10:50 37 47 92 ESE 31.1 35.8 7 11.48 exactly 11.5 7 11.48 10.66 - 12.30 12 1.64 0.82 - 2.46 29.73 -0.04
11:50 37 47 90 ESE 33.1 38.0 6 11.81 exactly 11.8 6 9.84 9.02 - 10.66 9 4.92 4.10 - 5.74 29.72 -0.05
12:50 37 47 90 ESE 31.1 35.8 8 13.12 exactly 13.1 8 11.48 10.66 - 12.30 10 4.92 4.10 - 5.74 29.70 -0.05
13:50 37 47 87 ESE 35.0 40.3 7 12.80 exactly 12.8 7 11.48 10.66 - 12.30 11 4.92 4.10 - 5.74 29.68 -0.05
14:50 36 47 94 ESE 35.0 40.3 8 14.44 exactly 14.4 8 14.76 13.94 - 15.58 - - - 29.65 -0.07
15:50 38 47 87 ESE 31.1 35.8 9 14.44 exactly 14.4 9 13.12 12.30 - 13.94 11 6.56 5.74 - 7.38 29.64 -0.07
16:50 39 47 82 ESE 35.0 40.3 9 13.12 exactly 13.1 7 11.48 10.66 - 12.30 9 6.56 5.74 - 7.38 29.61 -0.08
17:50 39 47 83 ESE 33.1 38.0 8 15.42 exactly 15.4 8 13.12 12.30 - 13.94 11 6.56 5.74 - 7.38 29.60 -0.06
18:50 39 46 83 ESE 33.1 38.0 9 16.08 exactly 16.1 9 14.76 13.94 - 15.58 12 3.28 2.46 - 4.10 29.58 -0.05
19:50 38 47 89 SE 33.1 38.0 10 16.08 exactly 16.1 7 13.12 12.30 - 13.94 10 9.84 9.02 - 10.66 29.57 -0.03
20:50 38 47 88 ESE 33.1 38.0 10 15.42 exactly 15.4 7 13.12 12.30 - 13.94 10 8.20 7.38 - 9.02 29.57 -0.03
21:50 39 46 83 ESE 35.0 40.3 11 16.40 exactly 16.4 8 11.48 10.66 - 12.30 11 11.48 10.66 - 12.30 29.56 -0.02
22:50 39 46 84 ESE 33.1 38.0 10 17.39 exactly 17.4 7 11.48 10.66 - 12.30 10 13.12 12.30 - 13.94 29.56 -0.01
23:50 40 46 80 ESE 33.1 38.0 10 16.40 exactly 16.4 8 13.12 12.30 - 13.94 10 9.84 9.02 - 10.66 29.55 -0.01
00:50 39 46 88 ESE 33.1 38.0 11 17.72 exactly 17.7 8 13.12 12.30 - 13.94 11 11.48 10.66 - 12.30 29.55 -0.01
01:50 39 46 84 ESE 33.1 38.0 10 17.72 exactly 17.7 8 13.12 12.30 - 13.94 10 11.48 10.66 - 12.30 29.55 -0.01
02:50 39 46 85 ESE 31.1 35.8 11 15.09 exactly 15.1 6 11.48 10.66 - 12.30 11 9.84 9.02 - 10.66 29.55 -0.01
03:50 39 46 84 ESE 33.1 38.0 10 15.42 exactly 15.4 7 11.48 10.66 - 12.30 10 9.84 9.02 - 10.66 29.54 -

Detailed Wave Spectra

Time Water Depth Wave Height Spectral Peak Period Average Wave Period Sampling Interval Wave Record
20:00 463 ft 5.74 ft 11.4 sec 4.6 sec 0.6 sec 2400 sec
21:00 463 ft 5.31 ft 4.5 sec 4.3 sec 0.6 sec 2400 sec
22:00 463 ft 5.97 ft 12.1 sec 4.6 sec 0.6 sec 2400 sec
23:00 463 ft 6.23 ft 4.8 sec 4.8 sec 0.6 sec 2400 sec
00:00 463 ft 6.07 ft 5.0 sec 4.6 sec 0.6 sec 2400 sec
01:00 463 ft 7.45 ft 11.4 sec 5.0 sec 0.6 sec 2400 sec
02:00 463 ft 7.05 ft 5.6 sec 4.9 sec 0.6 sec 2400 sec
03:00 463 ft 7.68 ft 5.6 sec 4.9 sec 0.6 sec 2400 sec
04:00 463 ft 8.40 ft 5.9 sec 5.0 sec 0.6 sec 2400 sec
05:00 463 ft 9.28 ft 5.9 sec 5.2 sec 0.6 sec 2400 sec
06:00 463 ft 9.65 ft 6.3 sec 5.2 sec 0.6 sec 2400 sec
07:00 463 ft 10.37 ft 6.3 sec 5.4 sec 0.6 sec 2400 sec
08:00 463 ft 10.66 ft 6.3 sec 5.5 sec 0.6 sec 2400 sec
09:00 463 ft 10.79 ft 7.7 sec 5.5 sec 0.6 sec 2400 sec
10:00 463 ft 10.27 ft 7.7 sec 5.6 sec 0.6 sec 2400 sec
11:00 463 ft 11.42 ft 6.7 sec 5.6 sec 0.6 sec 2400 sec
12:00 463 ft 11.71 ft 6.3 sec 5.8 sec 0.6 sec 2400 sec
13:00 463 ft 13.02 ft 7.7 sec 6.0 sec 0.6 sec 2400 sec
14:00 463 ft 12.73 ft 7.1 sec 6.0 sec 0.6 sec 2400 sec
15:00 463 ft 14.50 ft 7.7 sec 6.3 sec 0.6 sec 2400 sec
16:00 463 ft 14.34 ft 9.1 sec 6.4 sec 0.6 sec 2400 sec
17:00 463 ft 13.19 ft 9.1 sec 6.2 sec 0.6 sec 2400 sec
18:00 463 ft 15.42 ft 8.3 sec 6.7 sec 0.6 sec 2400 sec
19:00 463 ft 16.01 ft 9.1 sec 6.7 sec 0.6 sec 2400 sec
20:00 463 ft 16.11 ft 10.0 sec 6.8 sec 0.6 sec 2400 sec
21:00 463 ft 15.32 ft 10.0 sec 6.7 sec 0.6 sec 2400 sec
22:00 463 ft 16.27 ft 10.8 sec 7.0 sec 0.6 sec 2400 sec
23:00 463 ft 17.26 ft 10.0 sec 7.2 sec 0.6 sec 2400 sec
00:00 463 ft 16.50 ft 10.0 sec 7.0 sec 0.6 sec 2400 sec
01:00 463 ft 17.75 ft 10.8 sec 7.1 sec 0.6 sec 2400 sec
02:00 463 ft 17.62 ft 10.0 sec 7.2 sec 0.6 sec 2400 sec
03:00 463 ft 15.26 ft 10.8 sec 6.7 sec 0.6 sec 2400 sec